Regional Weather Roundup
Issued by NWS Kansas City/Pleasant Hill, MO

Home | Current Version | Previous Version | Graphics & Text | Print | Product List | Glossary Off
Versions: 1 2 3 4 5 6 7 8 9 10 11 12 13 14 15 16 17 18 19 20 21 22 23 24 25 26 27 28

000
ASUS43 KEAX 031010
RWREAX

WEATHER ROUNDUP FOR EASTERN KANSAS AND NORTHWEST MISSOURI
NATIONAL WEATHER SERVICE KANSAS CITY/PLEASANT HILL MO
500 AM CDT TUE MAY 03 2016

KSZ040-057-103>105-MOZ028-029-037-043-031100-
...KANSAS CITY METROPOLITAN AREA...

CITY           SKY/WX    TMP DP  RH WIND       PRES   REMARKS
K.C. INTL      CLEAR     44  43  96 W5        30.06S
K.C. DOWNTOWN  CLEAR     46  43  89 CALM      30.06S
LEES SUMMIT    CLEAR     43  42  97 W5        30.06S
OLATHE - IXD   CLEAR     44  42  93 W3        30.08R
OLATHE - OJC   CLEAR     46  42  86 NW5       30.07R
LAWRENCE       CLEAR     38  37  97 NW3       30.07F

$$

MOZ001>008-011>017-020>025-030>033-038>040-044>046-053-054-031100-
...NORTHERN AND CENTRAL MISSOURI...

CITY           SKY/WX    TMP DP  RH WIND       PRES   REMARKS
ST. JOSEPH     FOG       43  42  97 CALM      30.07S VSB<1/4
MOSBY          MOSUNNY   41  41 100 CALM      30.06S FOG
WHITEMAN AFB   CLEAR     42  42 100 CALM      30.05S FOG
CLINTON        FOG       43  43 100 CALM      30.06S VSB 1/2
SEDALIA        CLEAR     46  44  93 W7        30.06S FOG
WARSAW         NOT AVBL
CHILLICOTHE      N/A     39  38  96 CALM      30.07S
KIRKSVILLE     CLOUDY    42  41  96 NW3       30.05S

$$

MOZ041-047>049-056>058-063>065-088>090-097-031100-
...EASTERN AND SOUTHERN MISSOURI...

CITY           SKY/WX    TMP DP  RH WIND       PRES   REMARKS
ST. LOUIS INTL MOCLDY    52  48  86 W6        30.01S
SPIRIT OF STL  CLOUDY    52  50  93 W3        30.01S
COLUMBIA       FOG       43  43 100 CALM      30.04S VSB 1/4
JEFFERSON CITY FOG       45  45 100 NW3       30.05S VSB 1/4
ROLLA          CLOUDY    48  47  96 NW3       30.02S
OSAGE BEACH    CLOUDY    46  39  76 W3        30.06R VSB 1/4
SPRINGFIELD    FOG       44  42  93 CALM      30.05S VSB 3/4
JOPLIN         FOG       41  40  96 CALM      30.08S VSB 1/2
WEST PLAINS    CLOUDY    50  45  83 N3        30.04S

$$

IAZ060-094-KSZ022-034>040-054-083-096-NEZ052-066-093-031100-
...KANSAS...SOUTHEAST NEBRASKA AND IOWA...

CITY           SKY/WX    TMP DP  RH WIND       PRES   REMARKS
TOPEKA         PTCLDY    41  40  96 CALM      30.07S
MANHATTAN      CLEAR     41  38  89 CALM      30.07S FOG
EMPORIA        CLEAR     44  42  93 CALM      30.07R
CHANUTE        FOG       40  38  93 CALM      30.08R VSB 1/4
WICHITA        PTCLDY    46  41  82 CALM      30.06S
OMAHA          CLEAR     45  42  89 SE3       30.05S
LINCOLN        PTCLDY    42  40  92 CALM      30.06F
FALLS CITY     MOCLDY    44  41  89 CALM      30.06S
LAMONI         MOCLDY    45  41  86 CALM      30.04F
DES MOINES     PTCLDY    46  41  82 CALM      30.04S

$$





USA.gov is the U.S. government's official web portal to all federal, state and local government web resources and services.